Weather History for KCMD - January, 2014

Change the Weather History Date:

Thursday, January 30, 2014

  Actual Average Record
Temperature  
Mean Temperature 24 °F -  
Max Temperature 42 °F - - ()
Min Temperature 5 °F - - ()
Degree Days  
Heating Degree Days 42    
Moisture  
Dew Point 2 °F    
Average Humidity 43    
Maximum Humidity 85    
Minimum Humidity 15    
Precipitation  
Precipitation 0.00 in - - ()
Sea Level Pressure  
Sea Level Pressure 30.23 in    
Wind  
Wind Speed 4 mph (SSE)    
Max Wind Speed 12 mph    
Max Gust Speed 17 mph    
Visibility 10 miles    
Events      
T = Trace of Precipitation, MM = Missing Value Source: NWS Daily Summary

Daily Weather History Graph

Daily Weather History Graph

Search for Another Location

Airport or City:

Trip Planner

Search our weather history database for the weather conditions in past years. The results will help you decide how hot, cold, wet, or windy it might be!

Date:

Astronomy

Jan. 30, 2014 Rise Set
Actual Time 6:46 AM CST 5:15 PM CST
Civil Twilight 6:19 AM CST 5:42 PM CST
Nautical Twilight 5:49 AM CST 6:12 PM CST
Astronomical Twilight 5:20 AM CST 6:41 PM CST
Moon 6:13 AM CST (1/30) 5:24 PM CST (1/30)
Length of Visible Light 11h 22m
Length of Day
10h 29m
Waning Crescent, 0% of the Moon is Illuminated
Jan 30
Waning Crescent
Jan 30
New
Feb 6
First Quarter
Feb 14
Full
Feb 22
Last Quarter

Hourly Weather History & Observations

Time (CST) Temp. Windchill Dew Point Humidity Pressure Visibility Wind Dir Wind Speed Gust Speed Precip Events Conditions
12:15 AM 7.7 °F - 3.9 °F 85% 30.33 in 10.0 mi Calm Calm - N/A   Clear
12:35 AM 7.5 °F - 3.6 °F 84% 30.32 in 10.0 mi Calm Calm - N/A   Clear
12:55 AM 7.2 °F - 3.2 °F 84% 30.31 in 10.0 mi Calm Calm - N/A   Clear
1:15 AM 6.4 °F - 2.7 °F 84% 30.30 in 10.0 mi Calm Calm - N/A   Clear
1:35 AM 6.3 °F - 2.5 °F 84% 30.30 in 10.0 mi Calm Calm - N/A   Clear
1:55 AM 6.6 °F - 2.7 °F 84% 30.30 in 10.0 mi Calm Calm - N/A   Clear
2:15 AM 7.0 °F - 2.8 °F 83% 30.30 in 10.0 mi Calm Calm - N/A   Clear
2:35 AM 6.8 °F - 2.8 °F 84% 30.30 in 10.0 mi Calm Calm - N/A   Clear
2:55 AM 7.0 °F - 2.7 °F 82% 30.31 in 10.0 mi Calm Calm - N/A   Clear
3:15 AM 7.5 °F - 2.5 °F 80% 30.31 in 10.0 mi Calm Calm - N/A   Clear
3:35 AM 6.8 °F - 2.1 °F 81% 30.31 in 10.0 mi Calm Calm - N/A   Clear
3:55 AM 5.7 °F - 2.1 °F 85% 30.31 in 10.0 mi Calm Calm - N/A   Clear
4:15 AM 5.7 °F - 1.9 °F 84% 30.31 in 10.0 mi Calm Calm - N/A   Clear
4:35 AM 6.4 °F - 2.5 °F 84% 30.31 in 10.0 mi Calm Calm - N/A   Clear
4:55 AM 6.1 °F - 1.8 °F 82% 30.31 in 10.0 mi Calm Calm - N/A   Clear
5:15 AM 9.0 °F - 2.5 °F 75% 30.30 in 10.0 mi Calm Calm - N/A   Clear
5:35 AM 13.5 °F 4.4 °F 2.7 °F 62% 30.30 in 10.0 mi ESE 5.8 mph - N/A   Clear
5:55 AM 15.4 °F 6.8 °F 2.8 °F 58% 30.30 in 10.0 mi SE 5.8 mph - N/A   Clear
6:15 AM 15.4 °F 9.8 °F 1.9 °F 55% 30.30 in 10.0 mi SSE 3.5 mph - N/A   Clear
6:35 AM 15.4 °F 9.8 °F 1.4 °F 54% 30.30 in 10.0 mi SE 3.5 mph - N/A   Clear
6:55 AM 14.9 °F - 0.9 °F 54% 30.30 in 10.0 mi Calm Calm - N/A   Clear
7:15 AM 14.9 °F 6.1 °F 1.6 °F 56% 30.30 in 10.0 mi ESE 5.8 mph - N/A   Clear
7:35 AM 16.9 °F 9.8 °F 1.2 °F 50% 30.30 in 10.0 mi ESE 4.6 mph - N/A   Clear
7:55 AM 18.3 °F 10.2 °F 1.8 °F 49% 30.31 in 10.0 mi ESE 5.8 mph - N/A   Clear
8:15 AM 20.1 °F 11.3 °F 2.5 °F 46% 30.31 in 10.0 mi SSE 6.9 mph - N/A   Clear
8:35 AM 20.8 °F 13.2 °F 2.8 °F 46% 30.32 in 10.0 mi SSE 5.8 mph - N/A   Clear
8:55 AM 22.8 °F 12.9 °F 3.9 °F 44% 30.32 in 10.0 mi SSE 9.2 mph - N/A   Clear
9:15 AM 24.4 °F 17.5 °F 4.6 °F 43% 30.32 in 10.0 mi SE 5.8 mph - N/A   Clear
9:35 AM 26.4 °F 19.8 °F 5.2 °F 40% 30.32 in 10.0 mi SSE 5.8 mph - N/A   Clear
9:55 AM 27.9 °F 19.8 °F 4.6 °F 37% 30.32 in 10.0 mi South 8.1 mph - N/A   Clear
10:15 AM 29.7 °F 21.3 °F 3.9 °F 34% 30.31 in 10.0 mi South 9.2 mph - N/A   Clear
10:35 AM 30.9 °F 22.8 °F 2.5 °F 30% 30.31 in 10.0 mi SSE 9.2 mph - N/A   Clear
10:55 AM 32.0 °F 25.6 °F 1.6 °F 27% 30.30 in 10.0 mi South 6.9 mph - N/A   Clear
11:15 AM 32.5 °F 26.2 °F 0.9 °F 26% 30.29 in 10.0 mi SSE 6.9 mph - N/A   Clear
11:35 AM 33.8 °F 27.0 °F 0.1 °F 24% 30.27 in 10.0 mi ESE 8.1 mph - N/A   Clear
11:55 AM 34.9 °F 28.3 °F 0.1 °F 23% 30.25 in 10.0 mi SSE 8.1 mph - N/A   Clear
12:15 PM 36.1 °F 29.3 °F -1.1 °F 21% 30.23 in 10.0 mi SSE 9.2 mph - N/A   Clear
12:35 PM 37.6 °F 31.6 °F -0.9 °F 20% 30.19 in 10.0 mi SSE 8.1 mph - N/A   Clear
12:55 PM 37.8 °F 32.5 °F -3.3 °F 18% 30.19 in 10.0 mi South 6.9 mph - N/A   Clear
1:15 PM 39.2 °F 33.6 °F -4.2 °F 16% 30.18 in 10.0 mi SSE 8.1 mph - N/A   Clear
1:35 PM 39.7 °F 35.6 °F -4.5 °F 15% 30.16 in 10.0 mi South 5.8 mph - N/A   Clear
1:55 PM 40.8 °F 34.5 °F -3.1 °F 16% 30.16 in 10.0 mi SSW 10.4 mph - N/A   Clear
2:15 PM 41.2 °F 35.5 °F -2.2 °F 16% 30.15 in 10.0 mi SSW 9.2 mph - N/A   Clear
2:35 PM 42.6 °F 36.3 °F -2.2 °F 15% 30.13 in 10.0 mi SSE 11.5 mph 17.3 mph N/A   Clear
2:55 PM 42.4 °F 36.5 °F -1.8 °F 16% 30.12 in 10.0 mi South 10.4 mph - N/A   Clear
3:15 PM 42.4 °F 36.5 °F -0.6 °F 17% 30.12 in 10.0 mi SSE 10.4 mph - N/A   Clear
3:35 PM 42.8 °F 36.6 °F -0.0 °F 17% 30.12 in 10.0 mi South 11.5 mph - N/A   Clear
3:55 PM 42.8 °F 37.0 °F 0.1 °F 17% 30.13 in 10.0 mi South 10.4 mph - N/A   Clear
4:15 PM 42.3 °F 36.8 °F -0.0 °F 17% 30.14 in 10.0 mi South 9.2 mph - N/A   Clear
4:35 PM 41.5 °F 35.4 °F 0.3 °F 18% 30.14 in 10.0 mi South 10.4 mph - N/A   Clear
4:55 PM 39.7 °F 33.7 °F 0.9 °F 20% 30.13 in 10.0 mi SSE 9.2 mph - N/A   Clear
5:15 PM 38.7 °F 32.9 °F 0.9 °F 20% 30.13 in 10.0 mi South 8.1 mph - N/A   Clear
5:35 PM 37.2 °F 34.7 °F 0.3 °F 21% 30.14 in 10.0 mi SE 3.5 mph - N/A   Clear
5:55 PM 36.5 °F 32.7 °F 0.5 °F 22% 30.13 in 10.0 mi SSE 4.6 mph - N/A   Clear
6:15 PM 35.4 °F 30.5 °F 1.2 °F 24% 30.13 in 10.0 mi SSE 5.8 mph - N/A   Clear
6:35 PM 35.4 °F 30.5 °F 1.9 °F 24% 30.12 in 10.0 mi SSE 5.8 mph - N/A   Clear
6:55 PM 35.2 °F 30.3 °F 2.3 °F 25% 30.12 in 10.0 mi SE 5.8 mph - N/A   Clear
7:15 PM 34.7 °F 30.6 °F 2.8 °F 26% 30.13 in 10.0 mi SSE 4.6 mph - N/A   Clear
7:35 PM 34.2 °F 29.0 °F 3.6 °F 28% 30.13 in 10.0 mi SSE 5.8 mph - N/A   Clear
7:55 PM 34.0 °F 28.0 °F 3.9 °F 28% 30.14 in 10.0 mi SSE 6.9 mph - N/A   Clear
8:15 PM 33.8 °F 27.0 °F 4.8 °F 30% 30.14 in 10.0 mi SSE 8.1 mph - N/A   Clear
8:35 PM 33.6 °F 29.4 °F 5.5 °F 31% 30.15 in 10.0 mi SSE 4.6 mph - N/A   Clear
8:55 PM 33.3 °F 27.1 °F 6.1 °F 32% 30.16 in 10.0 mi SSE 6.9 mph - N/A   Clear
9:15 PM 31.8 °F 26.2 °F 7.0 °F 35% 30.16 in 10.0 mi SSE 5.8 mph - N/A   Clear
9:35 PM 33.1 °F 26.9 °F 7.3 °F 34% 30.15 in 10.0 mi SSE 6.9 mph - N/A   Clear
9:55 PM 33.1 °F 26.1 °F 7.5 °F 34% 30.16 in 10.0 mi SSE 8.1 mph - N/A   Clear
10:15 PM 33.1 °F 26.1 °F 8.1 °F 35% 30.15 in 10.0 mi SSE 8.1 mph - N/A   Clear
10:35 PM 32.9 °F 25.9 °F 8.6 °F 36% 30.14 in 10.0 mi SE 8.1 mph - N/A   Clear
10:55 PM 32.4 °F 25.3 °F 9.1 °F 38% 30.15 in 10.0 mi SSE 8.1 mph - N/A   Clear
11:15 PM 32.0 °F 25.6 °F 9.5 °F 39% 30.14 in 10.0 mi SSE 6.9 mph - N/A   Clear
11:35 PM 32.2 °F 25.8 °F 10.0 °F 40% 30.14 in 10.0 mi SSE 6.9 mph - N/A   Clear
11:55 PM 32.2 °F 26.7 °F 10.9 °F 41% 30.15 in 10.0 mi SE 5.8 mph - N/A   Clear